Regional Weather Roundup
Issued by NWS

Home | Current Version | Previous Version | Text Only | Print | Product List | Glossary On
Versions: 1 2 3 4 5 6 7 8 9 10 11 12 13 14 15 16 17 18 19 20 21 22 23 24 25 26 27 28 29 30 31 32 33 34 35 36 37 38 39 40 41 42 43 44 45 46 47 48 49 50
000
ASUS42 KFFC 272103
RWRGA
WEATHER ROUNDUP FOR GEORGIA
NATIONAL WEATHER SERVICE PEACHTREE CITY GA
400 PM EST THU NOV 27 2014

NOTE: "FAIR" INDICATES FEW OR NO CLOUDS BELOW 12,000 FEET WITH NO
SIGNIFICANT WEATHER AND/OR OBSTRUCTIONS TO VISIBILITY.

* = USE WITH CAUTION. THE STATIONS MARKED WITH AN ASTERISK MAY NOT
REPORT WEATHER SUCH AS PRECIPITATION, FOG, OR THUNDER AND ARE NOT
QUALITY CONTROLLED BY NWS.

THE REMARK "TC" DENOTES TEMPERATURE READING IN DEGREES CELSIUS.

GAZ001>058-272200-
NORTH GEORGIA

CITY           SKY/WX    TMP DP  RH WIND       PRES   REMARKS
ATLANTA        CLOUDY    44  25  47 NW17      30.29R
ATHENS         SUNNY     45  25  45 NW16G26   30.25R
CHAMBLEE       CLOUDY    42  25  50 NW17      30.29R
PEACHTREE CITY CLOUDY    45  26  47 NW12G18   30.31R
ROME           PTSUNNY   42  28  57 NW9       30.34R
WEST ATLANTA   CLOUDY    43  25  49 NW9G20    30.31R
GAINESVILLE    CLOUDY    43  25  49 NW9       30.26S
CARTERSVILLE   CLOUDY    42  26  53 VRB3      30.34R


CITY           SKY/WX    TMP DP  RH WIND       PRES   REMARKS
DALTON*        CLOUDY    39  30  70 NW6       30.35R WCI  35
LAWRENCEVILLE* PTSUNNY   43  23  45 W13G21    30.26S
MARIETTA       CLOUDY    42  26  54 NW15      30.30R
KENNESAW*      CLOUDY    41  25  52 NW7G16    30.33R
$$

GAZ059>098-102>109-272200-
CENTRAL GEORGIA

CITY           SKY/WX    TMP DP  RH WIND       PRES   REMARKS
AUGUSTA-BUSH   SUNNY     53  28  38 NW18      30.20R
AUGUSTA-DANIEL PTSUNNY   54  29  38 NW12G21   30.20R
COLUMBUS       SUNNY     51  27  39 N13       30.30S
MACON          MOSUNNY   51  27  39 NW15G22   30.27R
ROBINS AFB     MOSUNNY   53  28  38 NW15      30.25S


CITY           SKY/WX    TMP DP  RH WIND       PRES   REMARKS
LAGRANGE*      MOSUNNY   52  31  46 NW15G21   30.31R
SYLVANIA*      SUNNY     55  33  44 NW20      30.20R
MILLEDGEVILLE* SUNNY     50  32  50 NW9G20    30.26R
$$

GAZ099>101-110>166-272200-
SOUTH GEORGIA

CITY           SKY/WX    TMP DP  RH WIND       PRES   REMARKS
SAVANNAH       MOSUNNY   58  28  32 NW13G23   30.18R
VALDOSTA       SUNNY     57  33  40 VRB6      30.25R
ALMA           SUNNY     55  29  36 NW17G28   30.22R
ST SIMONS      SUNNY     57  31  37 W12G20    30.19R
FT STEWART     SUNNY     56  30  37 NW13G18   30.19R
ALBANY         SUNNY     56  29  35 NW13      30.29R
HUNTER AFB     SUNNY     56  31  38 NW16      30.16R
MOODY AFB      SUNNY     56  32  40 W14       30.24R
BRUNSWICK      SUNNY     57  28  33 W15G23    30.20R


CITY           SKY/WX    TMP DP  RH WIND       PRES   REMARKS
BAINBRIDGE*    SUNNY     61  34  36 NW10      30.28R
MOULTRIE*      SUNNY     55  34  44 NW6       30.26S
VIDALIA*       SUNNY     54  32  43 NW9G16    30.22R
WAYCROSS*      SUNNY     59  35  40 NW15      30.22S
DOUGLAS*       SUNNY     55  30  38 NW14      30.25R
$$



USA.gov is the U.S. government's official web portal to all federal, state and local government web resources and services.